FENGYUN 1C DEB, 31618

Orbit data source: Space-Track

FENGYUN 1C DEB, 31618 is space debris in SSO originally from a launch on Mon, 10 May 1999 UTC launched from the Taiyaun Space Center, China (TSC). Fengyun 1C debris stems from the Chinese weather satellite Fengyun-1C, which was intentionally destroyed by a Chinese anti-satellite missile in 2007. This event dramatically increased the amount of space debris, with thousands of trackable fragments posing hazards to satellites and human spaceflight. The Fengyun 1C debris cloud has become a focal point in discussions about space sustainability and the need for international regulations to prevent the creation of new debris.

Loading next visibility...
Identifier
31618, 1999-025BZY
Orbit
SSO
Country
Flag of CNCN / PRC
Related business
Manufacturer
Unknown
Mission
Spacecraft
Bus & Motor
Unknown
Mass
Unknown
Launch date (UTC)
1999-05-10 (27 years ago)
Launch vehicle
Unknown
Launch site
Taiyaun Space Center, China (TSC)
Object type
Payload
Rocket body
Debris
Shape & HBR
Unknown shape, 0.1 m
Radar Cross Section
Small (<0.1 m²)

Expand to show TLE details & history
Last TLE update: 5 days ago

TLE from 5 days ago
0 FENGYUN 1C DEB
1 31618U 99025BZY 26141.66968916  .00000443  00000-0  20050-3 0  9990
2 31618  99.4663 300.8505 0156169 234.2583 124.3982 14.21334474725369
Epoch: 2026-05-21T16:04Z
TLE epoch observation values (Epoch: 2026-05-21T16:04:21.143Z)
Latitude
-0.00004°
Longitude
-179.54916°
Altitude
888.441 km
Speed
7.375 km/s
True Right ascension
20h 03m 24s
True Declination
0° 00' 00"
Sunlit
Object was in daylight at epoch
Visualization orbit readout
Latitude
Unknown
Longitude
Unknown
Altitude
Unknown
Speed
Unknown
Apparent Right ascension
Unknown
Apparent Declination
Unknown
Sunlit
N/A
Visualization observer readout
Local Sidereal Time
17:29:06
Azimuth
Unknown
Elevation
Unknown
Doppler factor
Unknown
Orbital elements
Apogee altitude
930.419 km
Perigee altitude
705.655 km
Semi-major axis
7,196.174 km
Eccentricity
0.01562
Inclination
99.4663°
RAAN
300.8505°
Arg. of periapsis
234.2583°
True anomaly
125.85855°
Mean anomaly
124.3982°
Eccentric anomaly
125.13°
Mean motion
3.55542 °/min
Orbital period
101.25 mins
BSTAR
0.0002005
Loading maneuver chart data...
Computing Atmospheric mass density...

Documentation

Showing up to 5 results
|